[[{"header":{"parameterUnit":"m.s-1","parameterCategory":2,"la1":30.2991,"la2":30.254,"lo1":-89.0895,"lo2":-89.0444,"dx":0.0017,"dy":0.0017,"nx":28,"ny":28,"refTime":"2023-01-07T03:00:00:Z","depth":"0","parameterNumber":2,"parameterNumberName":"U-component_of_CURRENTS"},"data":[0,0,0,0,0,0,0,0,0,0,0,0,0,0,0,0,0,0,0,0,0,0,0,0,0,0,0,0,0,0,0,0,0,0,0,0,0,0,0,0,0,0,0,0,0,0,0,0,0,0,0,0,0,0,0,0,0,0,0.3522,0.3523,0,0.3534,0.3533,0.3533,0.3497,0.3497,0.3496,0.3495,0.3435,0.3434,0.3433,0,0,0,0,0,0,0,0,0,0,0,0,0,0.3519,0.3518,0.3522,0.3523,0.3523,0.3534,0.3533,0.3533,0.3497,0.3497,0.3496,0.3495,0.3435,0.3434,0.3433,0,0,0,0,0,0,0,0,0,0,0,0,0,0.3519,0.3518,0.3522,0.351,0.351,0.3534,0.3533,0.3533,0.3497,0.3497,0.3496,0.3495,0.3436,0.3434,0.3433,0.3441,0,0,0.3428,0.3427,0,0,0,0,0,0,0,0,0.3519,0.3518,0.3512,0.3511,0.3511,0.3518,0.351,0.35,0.3498,0.3497,0.3495,0.3494,0.346,0.3456,0.3454,0.3439,0.3436,0.3428,0.3427,0.3426,0.3426,0,0,0,0,0,0,0,0.3519,0.3518,0.3521,0.3512,0.3512,0.3522,0.352,0.3508,0.3478,0.3497,0.3495,0.3505,0.3458,0.3456,0.3452,0.3435,0.3428,0.3426,0.3425,0.3425,0.3447,0.3449,0,0,0,0,0,0,0.3526,0.3518,0.3521,0.3522,0.3519,0.3523,0.3521,0.3512,0.348,0.3476,0.3506,0.3504,0.3459,0.3454,0.345,0.3487,0.3426,0.3425,0.3424,0.3446,0.3448,0.3449,0,0,0,0,0,0,0.3526,0.3526,0.3521,0.3526,0.3526,0.3524,0.3515,0.3513,0.3516,0.3489,0.3482,0.3513,0.3458,0.3452,0.3456,0.3483,0.3424,0.3422,0.3444,0.3447,0.3449,0.3541,0,0,0,0,0,0,0.3525,0.3525,0.3519,0.3525,0.3526,0.3543,0.3516,0.3514,0.3526,0.3522,0.3492,0.3485,0.3457,0.3459,0.3454,0.3479,0.3421,0.3442,0.3445,0.3448,0.3536,0.3547,0.3555,0,0,0,0,0,0.3525,0.352,0.3518,0.3519,0.3518,0.3544,0.3546,0.3538,0.3527,0.3535,0.3521,0.3486,0.3474,0.3459,0.3453,0.3479,0.3441,0.3444,0.3448,0.3532,0.3545,0.3555,0,0,0,0,0,0,0.3506,0.3517,0.3515,0.3509,0.3532,0.354,0.3549,0.3549,0.3544,0.3538,0.3506,0.3499,0.351,0.3486,0.3471,0.3495,0.3452,0.3454,0.3518,0.3529,0.3538,0.3558,0.342,0,0,0,0,0,0.3504,0.3511,0.3524,0.3528,0.3537,0.3547,0.3556,0.3556,0.3558,0.3555,0.3535,0.352,0.3521,0.3518,0.3505,0.3521,0.3525,0.3534,0.3544,0.3552,0.3566,0.3602,0.3616,0.3461,0.3461,0.3461,0,0,0.3505,0.351,0.3516,0.3527,0.354,0.3564,0.3548,0.357,0.3594,0.355,0.3562,0.3548,0.3533,0.355,0.3553,0.3533,0.3602,0.3556,0.3563,0.3573,0.3607,0.3622,0.3636,0.3463,0.3463,0.3462,0,0,0.3513,0.351,0.3519,0.354,0.3566,0.3582,0.3594,0.3606,0.3612,0.3633,0.3611,0.3626,0.3608,0.3617,0.3619,0.3677,0.3648,0.366,0.3727,0.3762,0.3775,0.3787,0.3829,0.3843,0.3667,0.3668,0.3668,0,0.3506,0.3514,0.353,0.3546,0.3563,0.3594,0.3611,0.3639,0.3652,0.3663,0.3645,0.3659,0.365,0.3694,0.3718,0.37,0.371,0.3684,0.3776,0.3787,0.3798,0.3837,0.3852,0.3672,0.3672,0.3671,0.3671,0,0.3527,0.3533,0.3545,0.3576,0.3601,0.3626,0.3667,0.3695,0.3708,0.3726,0.3761,0.3762,0.377,0.3777,0.3769,0.3838,0.3819,0.3782,0.3749,0.3819,0.3856,0.387,0.3679,0.3678,0.3676,0.3675,0,0,0.3494,0.3545,0.3546,0.3558,0.3612,0.3632,0.3694,0.3744,0.3783,0.3809,0.3849,0.3885,0.3883,0.3888,0.3882,0.3927,0.4024,0.3894,0.3893,0.394,0.4109,0.3985,0.3988,0.3996,0.3999,0.4001,0.4112,0,0.3496,0.3525,0.3552,0.3591,0.3609,0.3658,0.3712,0.3768,0.3814,0.3865,0.3905,0.3936,0.3928,0.3936,0.3987,0.401,0.4062,0.3998,0.403,0.4032,0.3916,0.4,0.3758,0.3826,0.4125,0.4127,0.4129,0,0.3493,0.3516,0.3546,0.359,0.3601,0.3636,0.3716,0.3768,0.3868,0.3897,0.3956,0.3981,0.4071,0.4038,0.4147,0.4102,0.4121,0.4139,0.4143,0.4003,0.3932,0.38,0.3839,0.3766,0.415,0.4148,0.4147,0,0.3457,0.3498,0.3521,0.3539,0.3611,0.3633,0.3675,0.3772,0.3821,0.3923,0.3971,0.4055,0.4108,0.4159,0.4218,0.4184,0.4325,0.4273,0.4185,0.4177,0.3966,0.3933,0.3936,0.4347,0.4346,0.4346,0.4346,0,0.3437,0.3444,0.3506,0.352,0.3549,0.3607,0.3656,0.3718,0.382,0.3885,0.3981,0.4051,0.4141,0.4228,0.4256,0.4276,0.4358,0.4221,0.4202,0.399,0.396,0.3878,0.3838,0.435,0.4349,0.4349,0.4348,0,0.338,0.3427,0.3448,0.3514,0.3533,0.3552,0.3626,0.3673,0.3783,0.3879,0.3916,0.4074,0.4182,0.4268,0.4362,0.4314,0.421,0.4325,0.4077,0.4024,0.3811,0.3783,0.3631,0.3538,0.4234,0.4232,0.423,0,0.3344,0.3362,0.3424,0.344,0.3462,0.3501,0.3537,0.3636,0.3691,0.3884,0.3927,0.4082,0.4166,0.4274,0.4218,0.4237,0.4149,0.3998,0.3876,0.3788,0.3746,0.3627,0.3553,0.3655,0.3648,0.3643,0.3638,0,0.3278,0.3312,0.3338,0.3378,0.3406,0.3439,0.3495,0.3535,0.3672,0.3762,0.3905,0.3997,0.4086,0.3986,0.3985,0.3953,0.3766,0.3884,0.3855,0.3346,0.3155,0.3057,0.3621,0.3591,0.3595,0.3599,0.3602,0.3603,0.3218,0.3224,0.3277,0.3291,0.3328,0.3366,0.3355,0.3438,0.3511,0.3598,0.3774,0.3807,0.3759,0.3712,0.3669,0.3402,0.3457,0.3247,0.3246,0.3157,0.2968,0.3431,0.3328,0.3331,0.3334,0.3336,0.3338,0,0.3126,0.3154,0.3183,0.32,0.3188,0.3254,0.3308,0.328,0.3301,0.3408,0.3485,0.3387,0.3257,0.3192,0.2939,0.2787,0.2674,0.2714,0.2511,0.2492,0.2956,0.2832,0.2538,0.2538,0.2538,0.2538,0.2538,0.2538,0.3088,0.3075,0.3091,0.3046,0.3057,0.3015,0.3021,0.301,0.3041,0.2963,0.2872,0.2875,0.2833,0.2654,0.2425,0.2362,0.2236,0.2065,0.2183,0.2531,0.2581,0.2629,0.2506,0.2149,0.2148,0.1572,0.1568,0.1564]},{"header":{"parameterUnit":"m.s-1","parameterCategory":2,"la1":30.2991,"la2":30.254,"lo1":-89.0895,"lo2":-89.0444,"dx":0.0017,"dy":0.0017,"nx":28,"ny":28,"refTime":"2023-01-07T03:00:00:Z","depth":"0","parameterNumber":3,"parameterNumberName":"V-component_of_CURRENTS"},"data":[0,0,0,0,0,0,0,0,0,0,0,0,0,0,0,0,0,0,0,0,0,0,0,0,0,0,0,0,0,0,0,0,0,0,0,0,0,0,0,0,0,0,0,0,0,0,0,0,0,0,0,0,0,0,0,0,0,0,0.016,0.016,0,0.0128,0.0128,0.0127,0.0104,0.0104,0.0104,0.0104,0.0061,0.006,0.0059,0,0,0,0,0,0,0,0,0,0,0,0,0,0.0163,0.0164,0.016,0.016,0.0159,0.0128,0.0128,0.0127,0.0104,0.0104,0.0104,0.0104,0.0061,0.006,0.0058,0,0,0,0,0,0,0,0,0,0,0,0,0,0.0148,0.0164,0.016,0.0145,0.0144,0.0128,0.0128,0.0127,0.0104,0.0104,0.0104,0.0104,0.0062,0.006,0.0058,0.0049,0,0,0.0053,0.0052,0,0,0,0,0,0,0,0,0.0149,0.0148,0.0148,0.0146,0.0145,0.0122,0.0113,0.0101,0.0104,0.0117,0.0104,0.0104,0.0081,0.0078,0.0069,0.0046,0.0045,0.0053,0.0052,0.0051,0.0051,0,0,0,0,0,0,0,0.015,0.0149,0.0145,0.0148,0.0146,0.0128,0.0126,0.011,0.0098,0.0116,0.0114,0.0114,0.008,0.0071,0.0068,0.0044,0.0053,0.0052,0.005,0.005,0.0033,0.0033,0,0,0,0,0,0,0.016,0.015,0.0146,0.0144,0.0149,0.0128,0.0126,0.0127,0.0098,0.0094,0.0114,0.0113,0.0074,0.007,0.0067,0.0077,0.0051,0.005,0.0049,0.0032,0.0033,0.0033,0,0,0,0,0,0,0.016,0.016,0.0148,0.0148,0.0145,0.0129,0.013,0.0127,0.0124,0.0098,0.0093,0.0116,0.0074,0.0069,0.0064,0.0074,0.0049,0.0047,0.0031,0.0032,0.0033,0.0083,0,0,0,0,0,0,0.0161,0.016,0.0163,0.0149,0.0146,0.0151,0.0131,0.0126,0.0125,0.0123,0.0098,0.0093,0.0073,0.0067,0.0063,0.0072,0.0046,0.0031,0.0032,0.0033,0.008,0.0085,0.0089,0,0,0,0,0,0.0161,0.0168,0.0163,0.0163,0.0151,0.0152,0.0149,0.0135,0.0125,0.0131,0.0113,0.0095,0.007,0.0066,0.0061,0.007,0.003,0.0032,0.0033,0.0078,0.0084,0.0089,0,0,0,0,0,0,0.0171,0.0166,0.0161,0.0166,0.0165,0.0149,0.0152,0.0142,0.0131,0.0127,0.0101,0.0096,0.0093,0.0077,0.0073,0.0068,0.0047,0.0047,0.0084,0.0089,0.0093,0.0118,0.0045,0,0,0,0,0,0.0175,0.0179,0.0174,0.0179,0.0181,0.0167,0.0165,0.0157,0.0146,0.0141,0.0124,0.0106,0.0093,0.0088,0.0072,0.0071,0.0071,0.0074,0.0078,0.0082,0.0099,0.0097,0.0103,0.0037,0.0037,0.0037,0,0,0.018,0.0178,0.018,0.0181,0.0178,0.0189,0.0166,0.0168,0.0178,0.0138,0.0144,0.0119,0.0096,0.0094,0.0092,0.0083,0.0103,0.0084,0.0087,0.0102,0.0099,0.0105,0.0111,0.0038,0.0038,0.0038,0,0,0.02,0.0194,0.0207,0.021,0.0211,0.0205,0.0211,0.0201,0.0198,0.02,0.0172,0.016,0.0141,0.0128,0.0118,0.0139,0.0124,0.0129,0.0174,0.0172,0.0177,0.0182,0.0204,0.021,0.0134,0.0134,0.0134,0,0.0207,0.0224,0.0212,0.0228,0.0238,0.0218,0.024,0.0235,0.0225,0.0228,0.0211,0.0187,0.016,0.0165,0.0169,0.015,0.0155,0.0155,0.0178,0.0183,0.0187,0.0208,0.0215,0.0137,0.0136,0.0136,0.0136,0,0.0241,0.0254,0.0265,0.028,0.0287,0.0302,0.0299,0.0302,0.0293,0.0285,0.0287,0.0252,0.0243,0.0226,0.0203,0.0219,0.0216,0.0182,0.0167,0.0197,0.0217,0.0223,0.014,0.0139,0.0139,0.0138,0,0,0.0267,0.0285,0.0292,0.031,0.0317,0.033,0.0347,0.0362,0.0382,0.036,0.0387,0.035,0.033,0.0319,0.0285,0.028,0.0307,0.025,0.0248,0.0278,0.0325,0.0314,0.0319,0.0275,0.0276,0.0277,0.0333,0,0.0303,0.0345,0.0344,0.0389,0.0412,0.0404,0.0428,0.0434,0.0431,0.0449,0.0416,0.0423,0.0367,0.0366,0.0351,0.0317,0.0323,0.0297,0.0288,0.0289,0.0278,0.0325,0.0334,0.0384,0.0339,0.034,0.034,0,0.0346,0.0369,0.0418,0.0452,0.0464,0.0486,0.0523,0.0541,0.0551,0.0549,0.0543,0.0518,0.0512,0.0457,0.0431,0.0418,0.0385,0.0355,0.0356,0.0334,0.0287,0.0343,0.0396,0.03,0.0349,0.0348,0.0348,0,0.0384,0.0424,0.0468,0.048,0.0512,0.0537,0.0556,0.0573,0.0606,0.0619,0.0647,0.0617,0.0631,0.0571,0.0513,0.0474,0.0494,0.0426,0.0393,0.0392,0.0395,0.0392,0.0358,0.0421,0.0421,0.0421,0.042,0,0.0429,0.0465,0.0491,0.0517,0.0578,0.0582,0.0647,0.0658,0.0693,0.0758,0.0708,0.0766,0.0661,0.0655,0.0568,0.052,0.054,0.0425,0.0409,0.0413,0.0412,0.0321,0.0249,0.0423,0.0422,0.0422,0.0421,0,0.0469,0.0484,0.0536,0.0578,0.06,0.0644,0.0711,0.0757,0.0782,0.0869,0.0885,0.0896,0.0901,0.0805,0.0736,0.0617,0.0495,0.0528,0.0554,0.0539,0.0371,0.0302,0.0262,0.0216,0.0484,0.0484,0.0484,0,0.0494,0.0524,0.0585,0.0626,0.065,0.0714,0.0766,0.0801,0.0861,0.0968,0.1027,0.1062,0.1132,0.1027,0.0832,0.0698,0.0569,0.0571,0.0477,0.0388,0.0298,0.0247,0.0207,0.0512,0.0512,0.0512,0.0512,0,0.0542,0.0561,0.0605,0.0687,0.0748,0.0822,0.0902,0.0966,0.1038,0.1142,0.1294,0.1367,0.1282,0.117,0.0951,0.0817,0.0488,0.0569,0.0469,0.032,0.0273,0.0212,0.0462,0.0515,0.0514,0.0514,0.0514,0.0514,0.058,0.0617,0.0676,0.0756,0.0829,0.0933,0.1017,0.1128,0.1275,0.147,0.1512,0.1684,0.1449,0.1171,0.0958,0.055,0.0539,0.0411,0.0341,0.0304,0.0233,0.0499,0.0525,0.0524,0.0524,0.0524,0.0524,0,0.0625,0.0669,0.0743,0.0843,0.0934,0.0965,0.1112,0.1224,0.1434,0.1656,0.1829,0.184,0.1552,0.1192,0.0627,0.036,0.0251,0.0222,0.0149,0.012,0.0362,0.0335,0.033,0.033,0.033,0.033,0.033,0.033,0.0652,0.0724,0.0761,0.0915,0.0992,0.1133,0.1228,0.1421,0.161,0.1907,0.2057,0.2138,0.1851,0.0915,0.0297,0.014,-0.0043,-0.0061,-0.0149,0.0002,0.0014,0.0025,-0.0016,-0.0095,-0.0096,-0.0352,-0.0355,-0.0357]}],[{"header":{"parameterUnit":"m.s-1","parameterCategory":2,"la1":30.2991,"la2":30.254,"lo1":-89.0895,"lo2":-89.0444,"dx":0.0017,"dy":0.0017,"nx":28,"ny":28,"refTime":"2023-01-07T03:00:00:Z","depth":"2","parameterNumber":2,"parameterNumberName":"U-component_of_CURRENTS"},"data":[0,0,0,0,0,0,0,0,0,0,0,0,0,0,0,0,0,0,0,0,0,0,0,0,0,0,0,0,0,0,0,0,0,0,0,0,0,0,0,0,0,0,0,0,0,0,0,0,0,0,0,0,0,0,0,0,0,0,0.2318,0.2318,0,0.2308,0.2308,0.2308,0.2291,0.229,0.229,0.229,0.2322,0.2323,0.2324,0,0,0,0,0,0,0,0,0,0,0,0,0,0.2334,0.2334,0.2318,0.2318,0.2317,0.2308,0.2308,0.2308,0.2291,0.229,0.229,0.229,0.2322,0.2323,0.2325,0,0,0,0,0,0,0,0,0,0,0,0,0,0.2326,0.2334,0.2318,0.2308,0.2307,0.2308,0.2308,0.2308,0.2291,0.229,0.229,0.2289,0.2321,0.2323,0.2325,0.2345,0,0,0.233,0.2331,0,0,0,0,0,0,0,0,0.2327,0.2326,0.2309,0.2308,0.2307,0.23,0.2326,0.2323,0.2291,0.2297,0.229,0.2289,0.2319,0.2321,0.232,0.2347,0.2348,0.233,0.2331,0.2332,0.2333,0,0,0,0,0,0,0,0.2327,0.2326,0.2314,0.2309,0.2308,0.2308,0.2307,0.2325,0.2312,0.2296,0.2295,0.2294,0.2319,0.2318,0.232,0.2349,0.233,0.2332,0.2333,0.2334,0.242,0.2421,0,0,0,0,0,0,0.2328,0.2327,0.2314,0.2314,0.2316,0.2309,0.2306,0.2303,0.231,0.2311,0.2295,0.2293,0.2315,0.2318,0.2322,0.2378,0.2332,0.2334,0.2335,0.2418,0.242,0.2421,0,0,0,0,0,0,0.2329,0.2327,0.2315,0.232,0.2318,0.2309,0.2305,0.2303,0.2323,0.2309,0.231,0.2319,0.2315,0.2319,0.2351,0.2378,0.2335,0.2336,0.2417,0.2419,0.2421,0.247,0,0,0,0,0,0,0.2329,0.2327,0.2332,0.232,0.2318,0.2324,0.2305,0.2303,0.2322,0.2321,0.233,0.2331,0.2315,0.2348,0.2353,0.2379,0.2337,0.2415,0.2418,0.242,0.2467,0.2474,0.2479,0,0,0,0,0,0.233,0.2332,0.2332,0.2331,0.2322,0.2325,0.2325,0.2316,0.2324,0.2333,0.2342,0.2331,0.2366,0.2351,0.2356,0.2383,0.2414,0.2417,0.242,0.2464,0.2472,0.2479,0,0,0,0,0,0,0.2333,0.233,0.233,0.2329,0.2333,0.2322,0.2331,0.2336,0.2351,0.2353,0.2351,0.2353,0.2391,0.2384,0.2368,0.2415,0.2388,0.2392,0.242,0.2428,0.2434,0.2429,0.2339,0,0,0,0,0,0.2339,0.2346,0.2341,0.2344,0.235,0.2352,0.2357,0.235,0.2357,0.2364,0.2366,0.2378,0.2404,0.2413,0.2423,0.2454,0.2466,0.2474,0.248,0.2485,0.2485,0.2537,0.2548,0.243,0.243,0.243,0,0,0.2339,0.2341,0.2343,0.2347,0.2352,0.2362,0.2354,0.2363,0.2379,0.2367,0.2394,0.2404,0.2419,0.2446,0.2462,0.2445,0.2526,0.2489,0.2493,0.249,0.2541,0.2553,0.2563,0.2432,0.2432,0.2432,0,0,0.2345,0.2351,0.236,0.2366,0.2375,0.2379,0.2392,0.2391,0.2403,0.243,0.243,0.2455,0.2484,0.249,0.2505,0.2555,0.2561,0.2564,0.2588,0.2639,0.2649,0.2658,0.2692,0.2704,0.2562,0.2562,0.2562,0,0.2349,0.2351,0.2364,0.2373,0.2379,0.2396,0.2404,0.2426,0.2433,0.245,0.2444,0.2497,0.2505,0.2555,0.2564,0.2569,0.2596,0.256,0.2648,0.2657,0.2665,0.2697,0.271,0.2565,0.2564,0.2564,0.2564,0,0.2349,0.236,0.2369,0.239,0.2405,0.2411,0.2437,0.2458,0.2481,0.2495,0.2546,0.2555,0.2586,0.2596,0.2598,0.2662,0.2662,0.2655,0.2629,0.268,0.2711,0.2723,0.2569,0.2568,0.2567,0.2566,0,0,0.2338,0.2363,0.237,0.2377,0.2407,0.2415,0.2462,0.2499,0.254,0.2556,0.2604,0.2642,0.2651,0.2668,0.2676,0.2708,0.2789,0.2709,0.271,0.2741,0.2904,0.2807,0.281,0.2808,0.2811,0.2812,0.2902,0,0.2336,0.2352,0.2369,0.2392,0.2402,0.2432,0.2477,0.2516,0.2562,0.2612,0.2644,0.2693,0.2684,0.2706,0.2744,0.2788,0.2823,0.2765,0.2849,0.2851,0.2759,0.2821,0.2575,0.2626,0.2914,0.2916,0.2917,0,0.2325,0.2342,0.2354,0.2393,0.2403,0.2427,0.2496,0.2536,0.2621,0.2657,0.2712,0.2744,0.281,0.2786,0.2891,0.2862,0.2887,0.2905,0.2909,0.2807,0.2776,0.2621,0.2637,0.2937,0.2935,0.2934,0.2932,0,0.2298,0.2331,0.2339,0.2346,0.2396,0.2421,0.2466,0.2549,0.2599,0.2693,0.2741,0.2817,0.2872,0.2923,0.2967,0.2948,0.3067,0.3046,0.2977,0.297,0.2767,0.2738,0.3109,0.3109,0.3108,0.3108,0.3108,0,0.2274,0.2283,0.2329,0.2331,0.2366,0.2412,0.2476,0.2532,0.2627,0.2688,0.2769,0.2824,0.2914,0.2985,0.3005,0.3033,0.3109,0.2991,0.2992,0.2776,0.2748,0.3016,0.3004,0.3111,0.3111,0.311,0.3109,0,0.2229,0.2253,0.2266,0.2324,0.2348,0.2376,0.2476,0.2519,0.2628,0.2712,0.2744,0.2867,0.2956,0.3022,0.3109,0.3081,0.3109,0.309,0.282,0.2786,0.2967,0.2957,0.3034,0.3031,0.3029,0.3027,0.3026,0,0.2203,0.2203,0.2256,0.2268,0.2293,0.2353,0.2393,0.2503,0.2551,0.2719,0.2742,0.2872,0.291,0.301,0.2995,0.3015,0.308,0.2779,0.2682,0.2969,0.2963,0.2956,0.2949,0.2443,0.2436,0.2431,0.2427,0,0.2153,0.2171,0.2184,0.222,0.2251,0.2285,0.2356,0.2395,0.2519,0.2578,0.2653,0.27,0.2813,0.2714,0.2754,0.2726,0.2756,0.2675,0.3071,0.2489,0.2416,0.2409,0.2421,0.2382,0.2387,0.239,0.2393,0.2394,0.2117,0.2112,0.2134,0.2151,0.2183,0.2195,0.2198,0.2259,0.2297,0.2356,0.2476,0.247,0.2517,0.2446,0.2373,0.2329,0.2524,0.2393,0.2407,0.2427,0.2332,0.2258,0.2177,0.218,0.2183,0.2185,0.2188,0,0.2059,0.2057,0.2067,0.2062,0.2046,0.2112,0.2141,0.2097,0.2074,0.2153,0.2177,0.2012,0.1956,0.2017,0.1879,0.1871,0.1842,0.1783,0.1724,0.177,0.1812,0.1683,0.1357,0.1354,0.1352,0.135,0,0,0.2028,0.1998,0.1986,0.1918,0.1928,0.1873,0.187,0.1814,0.182,0.1745,0.1731,0.1886,0.1958,0.1643,0.1593,0.1448,0.1594,0.1383,0.2053,0.203,0.2068,0.2171,0.2027,0,0,0,0,0]},{"header":{"parameterUnit":"m.s-1","parameterCategory":2,"la1":30.2991,"la2":30.254,"lo1":-89.0895,"lo2":-89.0444,"dx":0.0017,"dy":0.0017,"nx":28,"ny":28,"refTime":"2023-01-07T03:00:00:Z","depth":"2","parameterNumber":3,"parameterNumberName":"V-component_of_CURRENTS"},"data":[0,0,0,0,0,0,0,0,0,0,0,0,0,0,0,0,0,0,0,0,0,0,0,0,0,0,0,0,0,0,0,0,0,0,0,0,0,0,0,0,0,0,0,0,0,0,0,0,0,0,0,0,0,0,0,0,0,0,0.0216,0.0215,0,0.0202,0.0202,0.0202,0.0188,0.0188,0.0188,0.0187,0.0147,0.0146,0.0145,0,0,0,0,0,0,0,0,0,0,0,0,0,0.0211,0.0212,0.0216,0.0215,0.0215,0.0202,0.0202,0.0202,0.0188,0.0188,0.0188,0.0187,0.0147,0.0146,0.0145,0,0,0,0,0,0,0,0,0,0,0,0,0,0.0207,0.0212,0.0216,0.0207,0.0206,0.0202,0.0202,0.0202,0.0188,0.0188,0.0187,0.0187,0.0148,0.0146,0.0145,0.0141,0,0,0.0141,0.014,0,0,0,0,0,0,0,0,0.0207,0.0207,0.0208,0.0208,0.0207,0.0197,0.0186,0.018,0.0188,0.0194,0.0187,0.0187,0.0162,0.0159,0.0157,0.0139,0.0138,0.0141,0.014,0.0139,0.0139,0,0,0,0,0,0,0,0.0208,0.0207,0.021,0.0208,0.0207,0.0198,0.0197,0.0185,0.0179,0.0194,0.0193,0.0192,0.0161,0.0158,0.0156,0.0137,0.0141,0.0139,0.0138,0.0138,0.0114,0.0114,0,0,0,0,0,0,0.0211,0.0208,0.021,0.0209,0.0207,0.0198,0.0197,0.02,0.0179,0.0176,0.0192,0.0192,0.0161,0.0157,0.0154,0.0157,0.0139,0.0138,0.0137,0.0114,0.0114,0.0114,0,0,0,0,0,0,0.0211,0.0212,0.0211,0.0208,0.0208,0.0199,0.0202,0.02,0.0196,0.0179,0.0175,0.019,0.016,0.0156,0.0147,0.0155,0.0137,0.0136,0.0114,0.0114,0.0114,0.0158,0,0,0,0,0,0,0.0211,0.0212,0.0214,0.0209,0.0208,0.0214,0.0202,0.02,0.0196,0.0195,0.0176,0.0172,0.016,0.015,0.0146,0.0153,0.0135,0.0113,0.0114,0.0114,0.0156,0.0159,0.0162,0,0,0,0,0,0.0211,0.022,0.0214,0.0214,0.0212,0.0215,0.0214,0.0206,0.0196,0.02,0.0186,0.0172,0.0149,0.0149,0.0145,0.0151,0.0113,0.0114,0.0114,0.0155,0.0159,0.0162,0,0,0,0,0,0,0.0219,0.0219,0.0213,0.022,0.0219,0.0213,0.0216,0.0207,0.0199,0.0196,0.0176,0.0171,0.0166,0.0151,0.0151,0.0145,0.0128,0.0128,0.0161,0.0164,0.0168,0.0185,0.0134,0,0,0,0,0,0.0221,0.0227,0.0224,0.0229,0.0232,0.0222,0.0221,0.0215,0.0208,0.0204,0.019,0.0175,0.0164,0.0159,0.0147,0.0144,0.013,0.0144,0.0148,0.0151,0.0162,0.0144,0.0147,0.0116,0.0116,0.0116,0,0,0.0225,0.0226,0.0229,0.0231,0.023,0.0241,0.0221,0.0225,0.0233,0.0201,0.0205,0.0184,0.0165,0.0164,0.016,0.0154,0.0151,0.0151,0.0154,0.0164,0.0145,0.0148,0.0151,0.0116,0.0116,0.0116,0,0,0.0243,0.0239,0.0253,0.0256,0.0256,0.0253,0.0254,0.0249,0.0247,0.0247,0.0225,0.0211,0.0196,0.0186,0.0179,0.0191,0.0167,0.0182,0.0216,0.0199,0.0201,0.0204,0.0189,0.019,0.0186,0.0186,0.0186,0,0.0246,0.0266,0.0256,0.0273,0.0282,0.0261,0.0282,0.0278,0.0268,0.0272,0.0255,0.0232,0.021,0.0213,0.0215,0.02,0.0186,0.0204,0.0204,0.0206,0.0207,0.0192,0.0192,0.0188,0.0188,0.0188,0.0188,0,0.028,0.0293,0.0303,0.0318,0.0325,0.0338,0.0335,0.0337,0.0327,0.032,0.0316,0.0285,0.0273,0.026,0.0242,0.0242,0.0228,0.0209,0.0197,0.0213,0.0196,0.0195,0.0192,0.0191,0.019,0.019,0,0,0.0298,0.0322,0.0327,0.0346,0.0352,0.0365,0.038,0.0392,0.0409,0.0384,0.0404,0.0369,0.0344,0.0334,0.0303,0.0287,0.0277,0.0256,0.0254,0.0248,0.0242,0.0223,0.022,0.0257,0.0257,0.0257,0.0226,0,0.0329,0.0372,0.0375,0.0416,0.044,0.0433,0.0455,0.0459,0.0454,0.0465,0.0428,0.043,0.0375,0.0372,0.0343,0.0299,0.0278,0.0288,0.0223,0.0221,0.0207,0.022,0.0233,0.0205,0.0225,0.0225,0.0225,0,0.0367,0.0391,0.044,0.0477,0.0488,0.0506,0.0542,0.056,0.0562,0.056,0.0542,0.0511,0.0485,0.0436,0.0363,0.0372,0.0311,0.0271,0.0268,0.0237,0.0201,0.0191,0.0203,0.0223,0.0223,0.0224,0.0224,0,0.0397,0.0439,0.0482,0.0495,0.0531,0.0553,0.0572,0.0586,0.0621,0.0622,0.0645,0.0589,0.0583,0.0497,0.0399,0.0383,0.0322,0.0286,0.0212,0.021,0.0203,0.02,0.0235,0.0235,0.0235,0.0235,0.0235,0,0.0435,0.0468,0.05,0.0525,0.0586,0.0593,0.0655,0.0666,0.0698,0.0757,0.0697,0.0727,0.0598,0.0543,0.0434,0.0327,0.0343,0.0226,0.0203,0.0217,0.0216,0.0216,0.0215,0.0234,0.0234,0.0234,0.0234,0,0.0464,0.0483,0.0537,0.0582,0.0603,0.0648,0.0719,0.0765,0.0786,0.0863,0.0872,0.0837,0.0768,0.0633,0.0505,0.0388,0.0279,0.0233,0.026,0.024,0.0168,0.0169,0.0148,0.0148,0.0147,0.0146,0.0146,0,0.0483,0.0514,0.0582,0.0624,0.0648,0.0714,0.0769,0.0808,0.0869,0.094,0.0988,0.0943,0.0929,0.0724,0.0518,0.0327,0.0292,0.02,0.0164,0.0181,0.016,0.0162,0.0164,0.0171,0.017,0.017,0.017,0,0.0521,0.0544,0.0591,0.0677,0.074,0.0824,0.0902,0.0969,0.1039,0.1101,0.1174,0.1167,0.0984,0.0793,0.0521,0.0381,0.0227,0.0188,0.0208,0.0189,0.0198,0.0179,0.0181,0.0168,0.0168,0.0168,0.0168,0.0168,0.055,0.0588,0.0652,0.0735,0.0815,0.0925,0.1006,0.1101,0.1214,0.1314,0.1301,0.1286,0.1069,0.072,0.0486,0.0224,0.0235,0.0128,0.013,0.0132,0.0139,0.0146,0.0107,0.0107,0.0107,0.0107,0.0107,0,0.0584,0.063,0.0706,0.0809,0.0901,0.0943,0.1093,0.1177,0.132,0.1386,0.1431,0.1217,0.101,0.0752,0.0378,0.0156,0.0132,0.0069,0.0095,0.0098,0.0101,0.0107,0.0067,0.0066,0.0065,0.0065,0,0,0.0604,0.0674,0.0712,0.0861,0.094,0.1077,0.1171,0.1299,0.138,0.1439,0.1419,0.1377,0.1084,0.0803,0.0506,0.0292,0.0239,0.0235,0.0291,0.0361,0.0366,0.0159,0.0175,0,0,0,0,0]}],[{"header":{"parameterUnit":"m.s-1","parameterCategory":2,"la1":30.2991,"la2":30.254,"lo1":-89.0895,"lo2":-89.0444,"dx":0.0017,"dy":0.0017,"nx":28,"ny":28,"refTime":"2023-01-07T03:00:00:Z","depth":"4","parameterNumber":2,"parameterNumberName":"U-component_of_CURRENTS"},"data":[0,0,0,0,0,0,0,0,0,0,0,0,0,0,0,0,0,0,0,0,0,0,0,0,0,0,0,0,0,0,0,0,0,0,0,0,0,0,0,0,0,0,0,0,0,0,0,0,0,0,0,0,0,0,0,0,0,0,0.1291,0.1292,0,0.133,0.133,0.133,0.1369,0.137,0.1371,0.1371,0.1427,0.1427,0.1428,0,0,0,0,0,0,0,0,0,0,0,0,0,0.127,0.127,0.1291,0.1292,0.1293,0.133,0.133,0.133,0.1369,0.137,0.1371,0.1372,0.1426,0.1427,0.1428,0,0,0,0,0,0,0,0,0,0,0,0,0,0.1288,0.127,0.1291,0.1319,0.1322,0.133,0.133,0.133,0.1369,0.137,0.1371,0.1372,0.1426,0.1427,0.1428,0.1411,0,0,0.1431,0.1432,0,0,0,0,0,0,0,0,0.1287,0.1288,0.1314,0.1317,0.132,0.1349,0.1343,0.1359,0.1368,0.1348,0.1371,0.1373,0.1403,0.1406,0.1406,0.1414,0.1416,0.1432,0.1432,0.1433,0.1433,0,0,0,0,0,0,0,0.1286,0.1287,0.1304,0.1315,0.1319,0.1336,0.1339,0.1346,0.1366,0.135,0.1353,0.1362,0.1405,0.1405,0.1408,0.1417,0.1432,0.1432,0.1433,0.1434,0.1508,0.151,0,0,0,0,0,0,0.1285,0.1286,0.1302,0.1305,0.131,0.1336,0.1339,0.1336,0.1366,0.1372,0.1361,0.1364,0.1403,0.1407,0.141,0.1477,0.1433,0.1434,0.1434,0.1507,0.1509,0.151,0,0,0,0,0,0,0.1284,0.1285,0.1301,0.13,0.1303,0.1335,0.1331,0.1336,0.1371,0.1375,0.1381,0.1394,0.1404,0.1408,0.1441,0.1476,0.1434,0.1435,0.1505,0.1507,0.1509,0.1556,0,0,0,0,0,0,0.1283,0.1284,0.13,0.1299,0.1303,0.1328,0.133,0.1336,0.1373,0.1378,0.1405,0.1409,0.1405,0.144,0.1442,0.1477,0.1436,0.1504,0.1506,0.1509,0.1553,0.156,0.1565,0,0,0,0,0,0.1281,0.1289,0.13,0.1303,0.1317,0.1329,0.1333,0.1358,0.1374,0.1393,0.141,0.141,0.1458,0.1441,0.1444,0.148,0.1502,0.1506,0.1508,0.155,0.1558,0.1565,0,0,0,0,0,0,0.1289,0.1294,0.1306,0.1316,0.1335,0.1338,0.1361,0.1376,0.1403,0.1419,0.142,0.1425,0.1471,0.1466,0.1448,0.151,0.1483,0.1487,0.1514,0.1522,0.1528,0.1531,0.1437,0,0,0,0,0,0.1297,0.1305,0.1315,0.1328,0.1339,0.1357,0.1373,0.1391,0.1407,0.1422,0.1438,0.1458,0.1478,0.1494,0.1508,0.1535,0.1543,0.1563,0.1569,0.1574,0.158,0.1616,0.1626,0.152,0.152,0.152,0,0,0.1303,0.131,0.1315,0.1332,0.1348,0.1365,0.137,0.1402,0.1426,0.1422,0.1466,0.1483,0.1491,0.1526,0.1546,0.1531,0.1611,0.1578,0.1582,0.1585,0.162,0.163,0.164,0.1522,0.1522,0.1521,0,0,0.1312,0.1327,0.1338,0.1354,0.1388,0.1396,0.1414,0.1437,0.1461,0.1498,0.1506,0.1544,0.157,0.1583,0.1591,0.164,0.1644,0.1652,0.1684,0.1719,0.1728,0.1736,0.1767,0.1777,0.1652,0.1653,0.1653,0,0.133,0.1334,0.1346,0.1363,0.1382,0.1413,0.1434,0.1456,0.1492,0.1514,0.1524,0.1583,0.1596,0.1634,0.1656,0.1655,0.1673,0.1654,0.1727,0.1735,0.1742,0.1772,0.1783,0.1655,0.1655,0.1655,0.1654,0,0.1336,0.1355,0.1365,0.1391,0.1415,0.144,0.1469,0.1505,0.1541,0.1564,0.1625,0.1645,0.1683,0.1696,0.1692,0.1752,0.1748,0.1732,0.1707,0.1756,0.1784,0.1795,0.1659,0.1658,0.1657,0.1657,0,0,0.1333,0.1364,0.1372,0.1388,0.1434,0.1448,0.1496,0.1538,0.1575,0.1625,0.1672,0.1719,0.1748,0.1759,0.1769,0.1797,0.1871,0.1793,0.1793,0.1821,0.1954,0.1816,0.1814,0.187,0.1872,0.1874,0.1956,0,0.1341,0.1366,0.1386,0.1422,0.1435,0.1478,0.1514,0.1563,0.1611,0.1665,0.171,0.1763,0.1766,0.1799,0.1833,0.1863,0.1899,0.185,0.1905,0.1906,0.1775,0.1822,0.188,0.1963,0.1966,0.1968,0.1969,0,0.1335,0.1355,0.1386,0.1428,0.1442,0.1478,0.1544,0.1584,0.1662,0.1702,0.1769,0.1806,0.1877,0.1866,0.1953,0.1925,0.1952,0.1965,0.1969,0.1828,0.1787,0.1903,0.1987,0.1986,0.1984,0.1983,0.1982,0,0.1303,0.135,0.1374,0.1389,0.1446,0.1485,0.1531,0.1605,0.1648,0.1742,0.1789,0.1865,0.1927,0.1969,0.2018,0.1999,0.2098,0.207,0.1971,0.1962,0.2042,0.2032,0.2132,0.2132,0.2131,0.2131,0.2131,0,0.1277,0.1301,0.1368,0.138,0.1424,0.148,0.1544,0.1596,0.1686,0.1733,0.182,0.1863,0.1959,0.2023,0.2045,0.2041,0.213,0.1985,0.1974,0.206,0.2052,0.2049,0.2039,0.2134,0.2134,0.2133,0.2132,0,0.1225,0.1268,0.13,0.1377,0.1407,0.1445,0.1549,0.1584,0.1686,0.1755,0.1793,0.19,0.1973,0.2046,0.2123,0.2069,0.2078,0.2057,0.216,0.2153,0.1914,0.1905,0.1945,0.1941,0.1937,0.1934,0.1932,0,0.1194,0.1206,0.129,0.1314,0.1356,0.1428,0.1465,0.1572,0.1608,0.175,0.1764,0.1886,0.1942,0.1949,0.2025,0.2059,0.2035,0.2026,0.1949,0.1909,0.1896,0.1892,0.1888,0.1926,0.1925,0.1924,0.1923,0,0.1138,0.1182,0.121,0.1259,0.1307,0.1344,0.1415,0.1433,0.1545,0.166,0.1697,0.1738,0.1815,0.1863,0.1913,0.1927,0.2016,0.1988,0.1994,0.1922,0.1887,0.1876,0.1876,0.1911,0.1913,0.1914,0.1914,0,0.1106,0.111,0.1155,0.1187,0.1237,0.1237,0.1287,0.1328,0.1382,0.1538,0.1546,0.1673,0.1792,0.1796,0.1834,0.1843,0.1808,0.1734,0.1754,0.1768,0.1669,0.1595,0.1527,0,0,0,0,0,0.1064,0.1057,0.1077,0.1092,0.1132,0.1162,0.1233,0.1284,0.1399,0.1384,0.1464,0.1524,0.1579,0.1643,0.1619,0.175,0.1813,0.1712,0.1737,0.1842,0.1857,0.1754,0,0,0,0,0,0,0.1034,0.1054,0.1046,0.1003,0.0999,0.1023,0.1066,0.1141,0.1141,0.1275,0.1319,0.1425,0.151,0.1588,0.1592,0.1611,0.1591,0.1798,0.1793,0.1834,0.1847,0.1859,0.1759,0,0,0,0,0]},{"header":{"parameterUnit":"m.s-1","parameterCategory":2,"la1":30.2991,"la2":30.254,"lo1":-89.0895,"lo2":-89.0444,"dx":0.0017,"dy":0.0017,"nx":28,"ny":28,"refTime":"2023-01-07T03:00:00:Z","depth":"4","parameterNumber":3,"parameterNumberName":"V-component_of_CURRENTS"},"data":[0,0,0,0,0,0,0,0,0,0,0,0,0,0,0,0,0,0,0,0,0,0,0,0,0,0,0,0,0,0,0,0,0,0,0,0,0,0,0,0,0,0,0,0,0,0,0,0,0,0,0,0,0,0,0,0,0,0,0.0221,0.0221,0,0.0219,0.0219,0.0219,0.0216,0.0216,0.0216,0.0216,0.0204,0.0204,0.0203,0,0,0,0,0,0,0,0,0,0,0,0,0,0.0208,0.0208,0.0221,0.0221,0.0221,0.0219,0.0219,0.0219,0.0216,0.0216,0.0216,0.0216,0.0204,0.0204,0.0203,0,0,0,0,0,0,0,0,0,0,0,0,0,0.021,0.0208,0.0221,0.022,0.0219,0.0219,0.0219,0.0219,0.0216,0.0216,0.0216,0.0216,0.0204,0.0204,0.0203,0.0202,0,0,0.0202,0.0202,0,0,0,0,0,0,0,0,0.021,0.0211,0.022,0.022,0.0219,0.0218,0.0209,0.0213,0.0216,0.0218,0.0216,0.0216,0.0208,0.0207,0.0207,0.0201,0.0201,0.0202,0.0202,0.0202,0.0201,0,0,0,0,0,0,0,0.021,0.0211,0.022,0.022,0.022,0.0213,0.0214,0.021,0.0213,0.0218,0.0217,0.0217,0.0207,0.0207,0.0207,0.0201,0.0202,0.0202,0.0201,0.0201,0.0198,0.0198,0,0,0,0,0,0,0.0211,0.0211,0.022,0.022,0.0214,0.0214,0.0214,0.0218,0.0213,0.0212,0.0217,0.0217,0.0208,0.0207,0.0206,0.0216,0.0202,0.0201,0.0201,0.0198,0.0198,0.0198,0,0,0,0,0,0,0.0211,0.0212,0.0221,0.0215,0.0216,0.0214,0.0219,0.0218,0.0221,0.0213,0.0212,0.022,0.0208,0.0207,0.0209,0.0215,0.0201,0.0201,0.0198,0.0198,0.0198,0.0228,0,0,0,0,0,0,0.0211,0.0212,0.0217,0.0215,0.0216,0.0225,0.0219,0.0218,0.0221,0.0221,0.0215,0.0214,0.0208,0.021,0.0209,0.0214,0.02,0.0197,0.0198,0.0198,0.0227,0.023,0.0232,0,0,0,0,0,0.021,0.0219,0.0217,0.0218,0.0222,0.0226,0.0226,0.0224,0.0221,0.0226,0.0223,0.0214,0.0211,0.021,0.0209,0.0214,0.0197,0.0198,0.0198,0.0226,0.0229,0.0232,0,0,0,0,0,0,0.0215,0.022,0.0218,0.0227,0.0228,0.0225,0.0231,0.0227,0.0228,0.0229,0.0219,0.0218,0.0222,0.0213,0.0212,0.0213,0.0201,0.0202,0.0223,0.0226,0.0228,0.024,0.02,0,0,0,0,0,0.0219,0.0227,0.0227,0.0234,0.0237,0.0234,0.0235,0.0233,0.0233,0.0233,0.0228,0.0223,0.0221,0.0221,0.0216,0.0219,0.0202,0.022,0.0222,0.0224,0.0232,0.0209,0.021,0.0199,0.0199,0.0199,0,0,0.0222,0.0226,0.023,0.0236,0.0238,0.0247,0.0235,0.024,0.025,0.0232,0.0243,0.0232,0.0224,0.0228,0.0228,0.0222,0.0217,0.0225,0.0227,0.0234,0.021,0.0211,0.0212,0.02,0.02,0.02,0,0,0.0236,0.0239,0.0251,0.0255,0.0258,0.0258,0.0261,0.026,0.0263,0.027,0.0258,0.0252,0.0251,0.0244,0.0242,0.0254,0.023,0.0249,0.0272,0.0249,0.025,0.025,0.0225,0.0223,0.025,0.0251,0.0251,0,0.024,0.0258,0.0255,0.0267,0.0277,0.0266,0.0283,0.0283,0.0282,0.0287,0.0279,0.0272,0.026,0.0266,0.0269,0.026,0.0241,0.0263,0.0252,0.0253,0.0253,0.0226,0.0223,0.0252,0.0252,0.0252,0.0252,0,0.0263,0.0278,0.0287,0.0302,0.031,0.0322,0.0324,0.0329,0.0328,0.0325,0.0329,0.0311,0.0308,0.0298,0.0289,0.0285,0.0269,0.0258,0.0247,0.0256,0.0227,0.0223,0.0254,0.0254,0.0253,0.0253,0,0,0.0274,0.0299,0.0304,0.0321,0.0332,0.0344,0.0359,0.0373,0.0389,0.0375,0.0392,0.0375,0.0358,0.0353,0.0333,0.0312,0.0289,0.0288,0.0286,0.0265,0.0236,0.0216,0.021,0.0274,0.0274,0.0274,0.0213,0,0.0296,0.033,0.0338,0.0374,0.0394,0.0396,0.0417,0.0425,0.0426,0.0436,0.0411,0.0417,0.0381,0.0382,0.0353,0.031,0.0283,0.0306,0.0228,0.0226,0.0209,0.0206,0.0273,0.0211,0.021,0.0209,0.0209,0,0.032,0.0342,0.0383,0.0421,0.0432,0.0452,0.0487,0.0506,0.051,0.0511,0.0499,0.0477,0.045,0.0419,0.0341,0.0358,0.0301,0.026,0.0257,0.0228,0.0201,0.02,0.0203,0.0203,0.0204,0.0204,0.0204,0,0.0336,0.0376,0.0415,0.0427,0.0465,0.0489,0.0512,0.0528,0.0557,0.0559,0.0574,0.0528,0.0517,0.044,0.0348,0.0346,0.0258,0.0242,0.0169,0.0166,0.0189,0.0189,0.0185,0.0185,0.0186,0.0186,0.0186,0,0.0358,0.0389,0.0428,0.045,0.0507,0.052,0.0578,0.0591,0.0619,0.0657,0.0616,0.0623,0.0522,0.0458,0.0365,0.0256,0.0266,0.0174,0.0151,0.0202,0.0205,0.0186,0.0187,0.0183,0.0184,0.0184,0.0185,0,0.037,0.0394,0.0443,0.0493,0.0518,0.0559,0.063,0.0668,0.0687,0.0734,0.074,0.0696,0.0611,0.0498,0.0371,0.0285,0.0179,0.0136,0.0199,0.018,0.0097,0.0101,0.0052,0.0051,0.005,0.0049,0.0048,0,0.0379,0.0405,0.0478,0.0517,0.0545,0.061,0.066,0.0702,0.0744,0.0776,0.0799,0.0736,0.0687,0.0496,0.0368,0.0185,0.0156,0.0095,0.0095,0.0102,0.0084,0.0089,0.0094,0.0046,0.0046,0.0046,0.0046,0,0.0395,0.0424,0.0466,0.0546,0.0607,0.0682,0.075,0.0786,0.0837,0.0854,0.0845,0.0751,0.0653,0.0496,0.0353,0.0221,0.0132,0.0084,0.0085,0.0084,0.0095,0.008,0.0085,0.0042,0.0043,0.0043,0.0043,0,0.0409,0.044,0.0499,0.057,0.0651,0.0729,0.0766,0.0814,0.0859,0.0887,0.0877,0.0775,0.0714,0.0514,0.0383,0.025,0.0213,0.0162,0.0159,0.0161,0.0205,0.0236,0.0208,0,0,0,0,0,0.0418,0.0453,0.0518,0.0599,0.0679,0.073,0.0819,0.085,0.0895,0.0894,0.0889,0.0796,0.0607,0.0527,0.039,0.0353,0.0183,0.0187,0.0121,0.0023,0.0027,0.0058,0,0,0,0,0,0,0.0424,0.0481,0.0514,0.0612,0.0668,0.0764,0.0823,0.0855,0.0855,0.0873,0.0776,0.0742,0.0559,0.0679,0.0379,0.0341,0.0276,0.0105,0.0101,0.0021,0.0025,0.0028,0.0061,0,0,0,0,0]}]]